K1KOF Weather Reports


time (UTC)temp
C
wind
direction
speed
KPH
gust
KPH
rain 1hr
cm
rain 24hr
cm
rain mn
cm
humidity
%
barometer
mb
20260505140305 21 132 3.2 19.3 0.00 0.00 0.00 76 1027.3
20260505130229 18 233 4.8 12.9 0.00 0.00 0.00 82 1027.2
20260505124719 17 154 0.0 9.7 0.00 0.00 0.00 85 1027.5
20260505124216 16 180 0.0 8.0 0.00 0.00 0.00 87 1027.4
20260505123711 16 180 4.8 8.0 0.00 0.00 0.00 87 1027.4
20260505123209 16 191 3.2 8.0 0.00 0.00 0.00 88 1027.5
20260505122705 16 189 8.0 9.7 0.00 0.00 0.00 88 1027.4
20260505122202 15 206 14.5 14.5 0.00 0.00 0.00 89 1027.5
20260505121659 15 214 0.0 11.3 0.00 0.00 0.00 89 1027.4
20260505121155 15 107 6.4 9.7 0.00 0.00 0.00 89 1027.2
20260505120651 15 193 8.0 9.7 0.00 0.00 0.00 90 1027.1
20260505120148 14 180 4.8 6.4 0.00 0.00 0.00 92 1027.0
20260505115641 14 104 4.8 8.0 0.00 0.00 0.00 94 1027.0
20260505115139 13 53 3.2 6.4 0.00 0.00 0.00 97 1027.0
20260505114636 13 81 3.2 6.4 0.00 0.00 0.00 97 1026.9
20260505114132 13 90 3.2 4.8 0.00 0.00 0.00 97 1027.0
20260505113629 12 71 1.6 4.8 0.00 0.00 0.00 97 1026.9
20260505113126 12 85 3.2 6.4 0.00 0.00 0.00 97 1026.8
20260505112622 12 87 4.8 8.0 0.00 0.00 0.00 98 1026.9
20260505112120 11 77 1.6 4.8 0.00 0.00 0.00 98 1026.9
20260505111614 11 55 3.2 4.8 0.00 0.00 0.00 97 1026.8
20260505111110 11 32 3.2 3.2 0.00 0.00 0.00 97 1026.6
20260505110607 11 54 0.0 4.8 0.00 0.00 0.00 98 1026.7
20260505110104 11 90 4.8 4.8 0.00 0.00 0.00 97 1026.9
20260505102039 12 48 0.0 0.0 0.00 0.00 0.00 95 1026.3
20260505101538 12 32 1.6 3.2 0.00 0.00 0.00 95 1026.3
20260505101033 12 71 1.6 4.8 0.00 0.00 0.00 94 1026.3
20260505100531 12 90 3.2 3.2 0.00 0.00 0.00 93 1026.4
20260505100028 12 306 0.0 4.8 0.00 0.00 0.00 93 1026.3
20260505095524 12 41 0.0 4.8 0.00 0.00 0.00 92 1026.4
20260505095020 12 49 0.0 4.8 0.00 0.00 0.00 91 1026.3
20260505094517 13 90 0.0 3.2 0.00 0.00 0.00 90 1026.1
20260505094013 13 49 0.0 4.8 0.00 0.00 0.00 90 1026.4
20260505093509 13 180 0.0 4.8 0.00 0.00 0.00 89 1026.4
20260505093007 13 114 0.0 4.8 0.00 0.00 0.00 88 1026.5
20260505092504 13 176 0.0 4.8 0.00 0.00 0.00 87 1026.3
20260505092002 13 180 3.2 4.8 0.00 0.00 0.00 87 1026.1
20260505091459 13 262 3.2 6.4 0.00 0.00 0.00 87 1026.2
20260505090957 13 120 3.2 3.2 0.00 0.00 0.00 87 1026.2
20260505090455 13 172 0.0 3.2 0.00 0.00 0.00 86 1026.2
20260505085952 13 270 0.0 8.0 0.00 0.00 0.00 86 1026.2
20260505085450 13 90 1.6 4.8 0.00 0.00 0.00 85 1026.1
20260505084948 13 293 3.2 8.0 0.00 0.00 0.00 86 1026.2
20260505084446 13 176 0.0 3.2 0.00 0.00 0.00 85 1026.1
20260505083943 13 127 0.0 3.2 0.00 0.00 0.00 86 1026.2
20260505083441 13 40 3.2 4.8 0.00 0.00 0.00 85 1026.1
20260505082937 13 95 3.2 6.4 0.00 0.00 0.00 85 1026.0
20260505082432 13 258 3.2 4.8 0.00 0.00 0.00 86 1026.4
20260505081930 14 107 3.2 3.2 0.00 0.00 0.00 85 1026.2
20260505081427 14 144 0.0 6.4 0.00 0.00 0.00 83 1026.1
20260505080923 14 270 0.0 3.2 0.00 0.00 0.00 83 1026.4
20260505080419 14 225 0.0 4.8 0.00 0.00 0.00 82 1026.1
20260505075915 14 90 0.0 4.8 0.00 0.00 0.00 82 1026.0
20260505075412 15 174 0.0 4.8 0.00 0.00 0.00 82 1026.0
20260505074909 15 208 3.2 8.0 0.00 0.00 0.00 81 1026.1
20260505074406 15 95 3.2 6.4 0.00 0.00 0.00 81 1026.1
20260505073903 15 206 3.2 4.8 0.00 0.00 0.00 81 1025.9
20260505073401 15 252 4.8 6.4 0.00 0.00 0.00 81 1026.0
20260505072858 15 248 3.2 4.8 0.00 0.00 0.00 81 1026.0
20260505072354 15 157 4.8 4.8 0.00 0.00 0.00 80 1025.8
20260505071850 15 237 3.2 8.0 0.00 0.00 0.00 80 1026.1
20260505071347 15 160 0.0 4.8 0.00 0.00 0.00 80 1025.9
20260505070845 15 270 4.8 4.8 0.00 0.00 0.00 80 1025.9
20260505070341 15 180 3.2 6.4 0.00 0.00 0.00 79 1026.0
20260505065837 15 257 0.0 6.4 0.00 0.00 0.00 79 1025.6
20260505065334 15 145 4.8 4.8 0.00 0.00 0.00 79 1025.9
20260505064831 15 20 0.0 11.3 0.00 0.00 0.00 79 1025.9
20260505064327 15 80 4.8 6.4 0.00 0.00 0.00 79 1025.8
20260505063826 15 210 3.2 8.0 0.00 0.00 0.00 79 1026.0
20260505063321 15 215 1.6 6.4 0.00 0.00 0.00 78 1025.6
20260505062818 15 162 1.6 9.7 0.00 0.00 0.00 77 1025.9
20260505062316 15 179 6.4 8.0 0.00 0.00 0.00 78 1025.9
20260505061812 15 26 1.6 4.8 0.00 0.00 0.00 79 1025.9
20260505061311 16 180 0.0 6.4 0.00 0.00 0.00 78 1025.8
20260505060808 16 180 1.6 12.9 0.00 0.00 0.00 77 1025.8
20260505060305 15 186 1.6 8.0 0.00 0.00 0.00 77 1026.1
20260505055800 15 80 3.2 4.8 0.00 0.00 0.00 77 1026.0
20260505055256 16 95 3.2 4.8 0.00 0.00 0.00 77 1026.1
20260505054754 16 174 1.6 6.4 0.00 0.00 0.00 77 1026.1
20260505054251 16 176 0.0 4.8 0.00 0.00 0.00 76 1026.0
20260505053749 16 140 3.2 6.4 0.00 0.00 0.00 76 1026.1
20260505053246 16 151 4.8 4.8 0.00 0.00 0.00 76 1026.1
20260505052743 16 143 4.8 9.7 0.00 0.00 0.00 74 1026.3
20260505052240 16 183 4.8 11.3 0.00 0.00 0.00 73 1026.4
20260505051737 16 229 3.2 14.5 0.00 0.00 0.00 73 1026.4
20260505051235 16 138 4.8 11.3 0.00 0.00 0.00 73 1026.5
20260505050732 16 194 3.2 12.9 0.00 0.00 0.00 73 1026.3
20260505050231 16 99 0.0 9.7 0.00 0.00 0.00 74 1026.4
20260505041700 17 193 4.8 12.9 0.00 0.00 0.00 70 1026.4
20260505041158 17 213 0.0 9.7 0.00 0.00 0.00 70 1026.4
20260505040655 16 182 4.8 11.3 0.00 0.00 0.00 70 1026.1
20260505040152 16 99 0.0 6.4 0.00 0.00 0.00 71 1026.3
20260505035648 16 175 1.6 6.4 0.00 0.00 0.00 73 1026.2
20260505035144 16 172 0.0 8.0 0.00 0.00 0.00 74 1026.2
20260505034641 14 90 0.0 3.2 0.00 0.00 0.00 82 1026.3
20260505034139 14 294 0.0 1.6 0.00 0.00 0.00 82 1026.4
20260505033635 14 6 1.6 3.2 0.00 0.00 0.00 83 1026.3
20260505033133 14 180 3.2 3.2 0.00 0.00 0.00 80 1026.2
20260505032631 14 63 3.2 4.8 0.00 0.00 0.00 80 1026.3
20260505032127 14 60 0.0 3.2 0.00 0.00 0.00 81 1026.3
20260505031624 15 77 0.0 4.8 0.00 0.00 0.00 80 1026.3
20260505031120 15 93 4.8 6.4 0.00 0.00 0.00 80 1026.3
20260505030618 15 59 3.2 4.8 0.00 0.00 0.00 79 1026.3
20260505030113 15 95 3.2 4.8 0.00 0.00 0.00 77 1026.1
20260505025609 15 66 1.6 4.8 0.00 0.00 0.00 76 1026.2
20260505025108 15 40 3.2 4.8 0.00 0.00 0.00 75 1026.0
20260505024605 15 66 3.2 4.8 0.00 0.00 0.00 74 1026.2
20260505024103 16 69 1.6 4.8 0.00 0.00 0.00 74 1026.0
20260505023600 15 32 0.0 3.2 0.00 0.00 0.00 72 1026.1
20260505023057 16 82 1.6 3.2 0.00 0.00 0.00 71 1026.2
20260505022554 16 90 3.2 4.8 0.00 0.00 0.00 70 1025.9
20260505022051 16 41 3.2 3.2 0.00 0.00 0.00 68 1026.1
20260505021548 17 200 0.0 4.8 0.00 0.00 0.00 68 1026.0
20260505021045 17 18 1.6 3.2 0.00 0.00 0.00 68 1026.1
20260505020544 17 57 3.2 3.2 0.00 0.00 0.00 68 1026.1
20260505020042 17 41 3.2 4.8 0.00 0.00 0.00 67 1025.9
20260505015539 17 45 0.0 4.8 0.00 0.00 0.00 67 1026.0
20260505015035 17 40 3.2 3.2 0.00 0.00 0.00 66 1025.6
20260505014532 17 66 1.6 1.6 0.00 0.00 0.00 66 1025.8
20260505014030 18 15 0.0 1.6 0.00 0.00 0.00 64 1025.7
20260505013527 18 29 0.0 1.6 0.00 0.00 0.00 63 1025.7
20260505013024 18 81 0.0 3.2 0.00 0.00 0.00 61 1025.8
20260505012522 18 99 0.0 1.6 0.00 0.00 0.00 60 1025.5
20260505012019 19 90 0.0 4.8 0.00 0.00 0.00 59 1025.5
20260505011514 19 84 0.0 1.6 0.00 0.00 0.00 58 1025.4
20260505011011 20 90 3.2 3.2 0.00 0.00 0.00 57 1025.6
20260505010507 20 180 0.0 3.2 0.00 0.00 0.00 57 1025.4
20260505010004 20 184 3.2 6.4 0.00 0.00 0.00 54 1025.4
20260505005500 21 180 3.2 6.4 0.00 0.00 0.00 53 1025.3
20260505004958 21 200 1.6 6.4 0.00 0.00 0.00 52 1025.5
20260505004454 21 139 0.0 8.0 0.00 0.00 0.00 51 1025.3
20260505003951 21 184 3.2 11.3 0.00 0.00 0.00 50 1025.0
20260505003448 21 102 0.0 6.4 0.00 0.00 0.00 49 1025.2
20260505002944 21 204 9.7 12.9 0.00 0.00 0.00 48 1025.2
20260505002441 21 175 4.8 11.3 0.00 0.00 0.00 48 1024.8
20260505001939 21 180 1.6 6.4 0.00 0.00 0.00 49 1025.1
20260505001436 21 180 4.8 8.0 0.00 0.00 0.00 49 1024.8
20260505000933 22 198 1.6 8.0 0.00 0.00 0.00 48 1025.0
20260505000432 21 180 1.6 8.0 0.00 0.00 0.00 48 1025.0
20260504235928 21 185 0.0 4.8 0.00 0.00 0.00 50 1025.1
20260504235425 21 107 0.0 4.8 0.00 0.00 0.00 53 1024.7
20260504234921 21 180 0.0 0.0 0.00 0.00 0.00 51 1024.9
20260504234419 22 246 0.0 0.0 0.00 0.00 0.00 49 1024.7
20260504233915 22 246 0.0 0.0 0.00 0.00 0.00 44 1024.5
20260504233411 22 262 0.0 1.6 0.00 0.00 0.00 40 1024.5
20260504232908 23 196 0.0 0.0 0.00 0.00 0.00 40 1024.6
20260504232405 23 166 0.0 4.8 0.00 0.00 0.00 41 1024.6
20260504231902 23 229 0.0 3.2 0.00 0.00 0.00 39 1024.5
20260504231358 23 8 0.0 4.8 0.00 0.00 0.00 37 1024.5
20260504230855 23 254 3.2 9.7 0.00 0.00 0.00 35 1024.5
20260504230352 23 186 1.6 1.6 0.00 0.00 0.00 36 1024.4
20260504225851 23 276 1.6 6.4 0.00 0.00 0.00 35 1024.3
20260504225347 24 191 0.0 8.0 0.00 0.00 0.00 34 1024.4
20260504224844 24 189 3.2 9.7 0.00 0.00 0.00 33 1024.6
20260504224341 25 236 3.2 6.4 0.00 0.00 0.00 33 1024.6
20260504223838 25 239 9.7 12.9 0.00 0.00 0.00 33 1024.6
20260504223333 25 241 3.2 8.0 0.00 0.00 0.00 34 1024.6
20260504222830 25 249 4.8 12.9 0.00 0.00 0.00 34 1024.9
20260504222327 25 145 1.6 11.3 0.00 0.00 0.00 37 1024.7
20260504221826 25 180 1.6 14.5 0.00 0.00 0.00 36 1024.8
20260504221322 25 234 1.6 9.7 0.00 0.00 0.00 37 1024.7
20260504220819 25 209 1.6 12.9 0.00 0.00 0.00 36 1024.7
20260504220316 25 196 9.7 12.9 0.00 0.00 0.00 36 1024.9
20260504215813 25 188 4.8 20.9 0.00 0.00 0.00 39 1024.6
20260504215309 25 266 4.8 17.7 0.00 0.00 0.00 37 1024.5
20260504214805 25 270 0.0 4.8 0.00 0.00 0.00 38 1024.5
20260504214303 25 203 1.6 11.3 0.00 0.00 0.00 37 1024.5
20260504213759 26 230 0.0 8.0 0.00 0.00 0.00 37 1024.3
20260504213255 26 198 1.6 14.5 0.00 0.00 0.00 35 1024.4
20260504212752 26 173 1.6 11.3 0.00 0.00 0.00 35 1024.4
20260504212248 26 275 0.0 6.4 0.00 0.00 0.00 34 1024.5
20260504211746 26 246 11.3 14.5 0.00 0.00 0.00 34 1024.6
20260504211242 26 112 0.0 6.4 0.00 0.00 0.00 35 1024.5
20260504210740 26 201 3.2 14.5 0.00 0.00 0.00 36 1024.5
20260504210237 26 127 3.2 11.3 0.00 0.00 0.00 34 1024.4
20260504205734 26 158 4.8 9.7 0.00 0.00 0.00 33 1024.6
20260504205232 26 197 4.8 9.7 0.00 0.00 0.00 34 1024.8
20260504204729 26 161 3.2 9.7 0.00 0.00 0.00 37 1024.7
20260504204228 26 152 3.2 12.9 0.00 0.00 0.00 32 1024.9
20260504203727 26 75 0.0 8.0 0.00 0.00 0.00 35 1024.8
20260504203224 26 198 0.0 8.0 0.00 0.00 0.00 34 1024.6
20260504202724 26 326 3.2 8.0 0.00 0.00 0.00 34 1024.7
20260504202221 25 183 4.8 8.0 0.00 0.00 0.00 33 1024.7
20260504201718 26 222 4.8 9.7 0.00 0.00 0.00 32 1024.8
20260504201215 25 119 4.8 9.7 0.00 0.00 0.00 32 1024.9
20260504200713 26 123 6.4 6.4 0.00 0.00 0.00 32 1024.6
20260504200209 25 187 1.6 8.0 0.00 0.00 0.00 34 1024.9
20260504195705 26 198 4.8 12.9 0.00 0.00 0.00 37 1025.1
20260504195201 26 177 3.2 17.7 0.00 0.00 0.00 33 1025.2
20260504194658 26 193 8.0 8.0 0.00 0.00 0.00 36 1025.1
20260504194154 26 191 4.8 9.7 0.00 0.00 0.00 35 1025.3
20260504193651 26 173 4.8 9.7 0.00 0.00 0.00 32 1025.3
20260504193149 25 125 0.0 12.9 0.00 0.00 0.00 35 1025.4
20260504192647 26 201 6.4 8.0 0.00 0.00 0.00 36 1025.5
20260504192144 25 164 0.0 9.7 0.00 0.00 0.00 40 1025.6
20260504191643 25 180 3.2 11.3 0.00 0.00 0.00 39 1025.6
20260504191138 25 196 8.0 8.0 0.00 0.00 0.00 34 1025.8
20260504190635 25 163 4.8 6.4 0.00 0.00 0.00 38 1025.9
20260504190131 25 184 6.4 8.0 0.00 0.00 0.00 35 1025.9
20260504185628 25 145 6.4 8.0 0.00 0.00 0.00 38 1025.9
20260504185125 25 225 4.8 8.0 0.00 0.00 0.00 38 1026.0
20260504184620 25 171 4.8 6.4 0.00 0.00 0.00 41 1026.3
20260504184115 24 180 0.0 9.7 0.00 0.00 0.00 36 1026.2
20260504183613 24 167 4.8 6.4 0.00 0.00 0.00 38 1026.5
20260504183111 25 144 3.2 9.7 0.00 0.00 0.00 37 1026.1
20260504182608 24 149 0.0 4.8 0.00 0.00 0.00 39 1026.4
20260504182105 24 191 3.2 6.4 0.00 0.00 0.00 40 1026.4
20260504181602 23 193 4.8 8.0 0.00 0.00 0.00 40 1026.4
20260504181100 23 144 4.8 11.3 0.00 0.00 0.00 39 1026.7
20260504180559 23 134 8.0 8.0 0.00 0.00 0.00 39 1026.5
20260504180058 23 187 0.0 8.0 0.00 0.00 0.00 40 1026.5
20260504175554 24 328 4.8 8.0 0.00 0.00 0.00 40 1026.4
20260504175051 24 152 4.8 8.0 0.00 0.00 0.00 39 1026.5
20260504174549 23 186 4.8 9.7 0.00 0.00 0.00 40 1026.9
20260504174045 23 135 4.8 9.7 0.00 0.00 0.00 41 1026.7
20260504173542 23 134 6.4 6.4 0.00 0.00 0.00 42 1026.6
20260504173040 23 138 9.7 9.7 0.00 0.00 0.00 40 1026.7
20260504172536 23 117 4.8 9.7 0.00 0.00 0.00 38 1026.9
20260504172033 23 153 4.8 6.4 0.00 0.00 0.00 40 1026.9
20260504171530 23 225 4.8 6.4 0.00 0.00 0.00 40 1026.8
20260504171027 23 191 3.2 11.3 0.00 0.00 0.00 43 1026.9
20260504170522 23 215 0.0 6.4 0.00 0.00 0.00 43 1027.2
20260504160443 22 18 4.8 11.3 0.00 0.00 0.00 46 1028.0
20260504150906 21 215 4.8 16.1 0.00 0.00 0.00 47 1028.3
20260504150403 22 250 0.0 9.7 0.00 0.00 0.00 48 1028.1